Weather History for K2WX - August, 2014

Change the Weather History Date:

Saturday, August 16, 2014

  Actual Average Record
Temperature  
Mean Temperature 72 °F 71 °F  
Max Temperature 86 °F 85 °F 102 °F (2003)
Min Temperature 58 °F 56 °F 41 °F (2012)
Degree Days  
Heating Degree Days 0 1  
Month to date heating degree days 0 11  
Since 1 June heating degree days 151 145  
Since 1 July heating degree days 16 31  
Cooling Degree Days 7 7  
Month to date cooling degree days 118 121  
Year to date cooling degree days 323 396  
Since 1 June cooling degree days 293 390  
Growing Degree Days 22 (Base 50)    
Moisture  
Dew Point 56 °F    
Average Humidity 61    
Maximum Humidity 90    
Minimum Humidity 32    
Precipitation  
Precipitation 0.00 in 0.05 in 0.53 in (1998)
Month to date precipitation 0.25 0.85  
Year to date precipitation 11.04 11.58  
Sea Level Pressure  
Sea Level Pressure 29.89 in    
Wind  
Wind Speed 11 mph (NNW)    
Max Wind Speed 23 mph    
Max Gust Speed 27 mph    
T = Trace of Precipitation, MM = Missing Value Source: NWS Daily Summary

Daily Weather History Graph

Daily Weather History Graph

Search for Another Location

Airport or City:

Trip Planner

Search our weather history database for the weather conditions in past years. The results will help you decide how hot, cold, wet, or windy it might be!

Date:

Astronomy

Aug. 16, 2014 Rise Set
Actual Time 5:55 AM MDT 8:00 PM MDT
Civil Twilight 5:23 AM MDT 8:32 PM MDT
Nautical Twilight 4:43 AM MDT 9:11 PM MDT
Astronomical Twilight 3:59 AM MDT 9:55 PM MDT
Moon 11:22 PM MDT (8/16) 1:06 PM MDT (8/16)
Length of Visible Light 15h 08m
Length of Day
14h 04m
Waning Gibbous, 58% of the Moon is Illuminated
Aug 16
Waning Gibbous
Aug 17
Last Quarter
Aug 25
New
Sep 2
First Quarter
Sep 8
Full

Hourly Weather History & Observations

Time (MDT) Temp. Heat Index Dew Point Humidity Pressure Visibility Wind Dir Wind Speed Gust Speed Precip Events Conditions
12:56 AM 66.0 °F - 63.0 °F 90% 29.84 in - NNW 15.0 mph - N/A   Unknown
1:56 AM 64.0 °F - 60.1 °F 87% 29.85 in - NNW 9.2 mph - N/A   Unknown
2:56 AM 60.1 °F - 57.9 °F 93% 29.86 in - West 6.9 mph - N/A   Unknown
3:56 AM 62.1 °F - 57.0 °F 84% 29.87 in - NW 13.8 mph - N/A   Unknown
5:56 AM 61.0 °F - 57.0 °F 87% 29.88 in - NNW 11.5 mph - N/A   Unknown
6:56 AM 59.0 °F - 55.9 °F 90% 29.91 in - West 5.8 mph - N/A   Unknown
7:56 AM 64.9 °F - 57.0 °F 75% 29.92 in - WNW 15.0 mph - N/A   Unknown
8:56 AM 71.1 °F - 57.0 °F 61% 29.92 in - WNW 13.8 mph - N/A   Unknown
9:56 AM 73.9 °F - 55.9 °F 53% 29.91 in - NW 17.3 mph - N/A   Unknown
10:56 AM 77.0 °F - 54.0 °F 45% 29.91 in - NW 13.8 mph 24.2 mph N/A   Unknown
11:56 AM 80.1 °F 80.0 °F 54.0 °F 40% 29.89 in - NNW 17.3 mph 23.0 mph N/A   Unknown
12:56 PM 82.9 °F 81.8 °F 53.1 °F 36% 29.88 in - North 12.7 mph 20.7 mph N/A   Unknown
1:56 PM 84.9 °F - 51.1 °F 31% 29.87 in - North 12.7 mph 18.4 mph N/A   Unknown
2:56 PM 84.9 °F - 51.1 °F 31% 29.88 in - North 8.1 mph 19.6 mph N/A   Unknown
3:56 PM 84.9 °F - 52.0 °F 32% 29.87 in - North 8.1 mph 19.6 mph N/A   Unknown
4:56 PM 84.9 °F 83.2 °F 53.1 °F 33% 29.86 in - NNE 12.7 mph 20.7 mph N/A   Unknown
5:56 PM 84.0 °F - 52.0 °F 33% 29.86 in - NNE 12.7 mph - N/A   Unknown
6:56 PM 80.1 °F 80.0 °F 54.0 °F 40% 29.87 in - ENE 11.5 mph - N/A   Unknown
7:56 PM 75.0 °F - 55.9 °F 51% 29.89 in - NNE 18.4 mph - N/A   Unknown
8:56 PM 66.9 °F - 57.9 °F 73% 29.90 in - NE 16.1 mph - N/A   Unknown
9:56 PM 64.0 °F - 57.0 °F 78% 29.91 in - ENE 6.9 mph - N/A   Unknown
10:56 PM 63.0 °F - 57.0 °F 81% 29.91 in - NW 4.6 mph - N/A   Unknown
11:56 PM 60.1 °F - 55.9 °F 86% 29.91 in - West 3.5 mph - N/A   Unknown